Theta_e
314 314 314 315 315 316 317 318 318 318 318 318 317 316 316 316 315 312 304 309 313 325 325 321 325 323 322 318 318 319 305 299 304 304 305 311 313 318 321 317 319 321 320 323 326
313 314 315 315 315 315 316 316 317 318 318 318 319 319 318 317 311 306 313 315 317 321 318 315 317 319 314 314 315 312 304 303 309 306 307 309 312 317 317 316 317 318 322 326 324
312 313 314 314 314 315 316 316 317 317 318 318 318 318 318 317 303 304 316 317 318 323 320 317 314 316 311 312 313 311 305 309 305 308 308 310 313 318 316 313 318 317 317 322 321
312 312 312 313 313 315 316 316 317 318 319 318 318 317 318 311 294 311 319 315 317 320 318 311 310 311 307 307 312 306 310 308 306 309 308 311 316 314 317 315 319 321 322 320 319
310 311 311 311 312 314 315 317 317 318 318 319 318 316 312 301 301 316 316 318 319 318 312 307 307 311 306 309 309 308 309 308 308 307 307 312 312 313 314 319 321 322 320 319 320
309 309 310 311 311 313 314 316 317 317 317 318 319 318 307 295 311 316 314 316 316 315 311 309 309 314 310 308 307 308 307 307 307 306 308 309 308 310 314 319 319 319 318 318 319
308 308 309 310 311 311 313 316 317 317 317 317 318 312 303 302 314 316 314 314 318 314 305 309 311 307 312 306 308 308 303 305 306 306 307 310 305 306 313 317 315 316 317 318 319
308 308 308 309 310 311 313 316 316 316 316 317 318 310 300 312 317 313 314 312 316 315 311 312 314 309 310 311 307 303 304 297 305 306 305 307 301 308 315 315 313 314 315 316 319
308 308 308 308 309 311 314 316 315 315 316 316 311 306 297 313 307 312 313 308 313 313 313 314 310 306 307 304 300 301 295 298 300 308 305 305 303 307 315 315 313 313 316 317 320
309 308 308 308 309 313 314 312 314 312 313 314 311 299 303 300 306 309 312 311 307 308 304 303 302 300 304 301 291 295 296 299 298 302 305 303 304 304 311 314 314 315 316 318 319
309 309 308 308 309 313 308 309 304 303 305 302 300 299 301 307 310 306 310 309 307 302 293 297 292 293 301 303 303 301 299 298 300 302 302 302 304 305 304 310 312 314 317 317 319
309 309 307 307 309 309 306 300 299 299 294 303 304 303 306 306 300 305 311 301 298 293 295 292 289 300 306 305 302 301 298 296 298 302 302 301 302 306 309 306 310 312 314 316 318
309 308 307 307 309 305 300 298 302 302 294 299 303 301 301 304 301 301 306 302 297 294 292 289 291 297 303 301 299 300 298 295 297 298 299 299 301 304 308 305 305 308 313 315 316
309 308 306 306 305 302 298 300 302 302 291 292 296 299 303 304 299 307 307 304 300 294 294 292 296 296 299 299 301 295 303 301 297 296 292 301 291 301 305 304 302 304 305 308 311
309 308 306 305 301 299 298 300 302 300 283 293 296 306 303 299 300 301 308 303 297 297 297 292 295 295 294 299 301 297 301 299 298 296 296 293 292 298 301 302 304 303 305 306 309
309 307 303 299 301 299 299 301 299 288 283 289 295 296 296 298 298 301 301 304 302 296 296 293 297 296 297 302 302 302 297 296 295 293 287 294 293 295 298 301 304 304 305 305 306
309 306 299 299 295 299 300 295 287 286 289 289 290 295 294 292 295 296 294 293 292 288 287 291 291 295 295 297 301 300 295 285 284 284 286 291 291 295 301 301 303 305 306 306 306
309 301 298 298 299 300 297 291 285 282 284 292 292 293 291 292 293 294 293 291 294 293 289 288 284 288 293 294 295 297 297 290 283 284 287 288 287 295 299 299 300 302 303 304 304
304 297 295 298 298 300 294 286 287 282 288 289 291 288 290 292 292 293 291 291 291 292 289 287 284 290 294 294 295 292 292 293 287 283 286 290 291 295 293 294 296 298 299 300 301
297 293 292 297 299 297 290 288 284 285 289 290 286 288 287 289 290 290 290 292 291 293 294 290 284 287 292 295 294 293 293 287 286 283 282 286 286 292 291 291 293 295 297 300 301
294 291 293 297 298 293 286 286 284 288 290 289 288 286 288 288 289 289 289 292 294 293 296 293 291 286 290 288 287 288 287 287 289 287 285 284 290 293 290 291 292 294 297 299 300
292 287 295 296 288 281 285 282 286 287 290 290 289 288 287 290 289 289 288 291 294 295 291 293 289 285 285 288 291 291 290 290 289 284 285 284 289 291 292 293 293 293 296 299 300
291 289 296 294 285 285 281 283 285 286 288 289 288 289 288 287 286 289 289 290 293 293 289 292 287 283 283 287 289 288 289 291 287 286 284 283 289 291 293 294 296 295 296 298 298
289 285 287 288 286 288 284 285 284 286 287 289 288 289 287 285 287 286 286 289 292 291 292 292 287 285 284 285 288 286 288 290 289 283 285 286 291 293 292 292 295 295 297 297 297
291 286 288 283 285 285 286 284 283 283 286 288 287 288 286 282 282 284 286 288 289 291 289 290 285 283 284 284 286 286 286 288 287 290 287 291 289 295 299 295 295 297 296 295 296
286 285 286 285 285 285 287 283 283 284 285 285 285 287 287 285 286 284 287 287 289 287 288 286 284 282 280 281 281 280 285 288 288 289 290 291 290 298 299 296 294 295 294 294 295
290 290 292 286 283 285 284 286 285 287 287 288 288 287 285 286 288 287 287 287 288 288 286 286 282 282 283 276 276 279 281 284 287 290 291 287 292 296 295 295 296 296 295 294 295
Wind_Speed
12 13 13 14 15 15 15 14 13 11 10 9 10 8 9 9 7 6 12 6 7 3 4 7 6 11 4 7 5 5 5 12 18 16 6 4 5 4 3 8 3 2 2 5 18
12 13 13 14 15 15 14 14 14 14 12 13 14 13 11 10 9 16 14 13 12 7 3 8 11 16 5 8 7 10 13 19 9 5 8 7 5 7 5 8 4 4 3 17 19
13 14 13 13 14 13 13 13 13 14 14 13 11 9 11 6 5 7 6 23 14 7 5 3 11 12 10 6 11 15 19 14 8 3 5 6 6 4 4 7 6 9 14 19 18
14 15 15 15 14 13 13 12 12 13 10 9 10 7 7 5 7 2 4 4 16 9 7 5 10 11 7 12 10 15 18 14 8 4 5 9 8 4 7 3 2 2 17 20 18
13 15 16 17 16 15 14 14 12 12 10 9 7 2 6 4 8 4 3 1 6 8 10 9 12 7 8 10 10 14 15 12 7 5 3 9 6 1 5 3 2 11 17 19 17
14 15 16 18 19 18 18 16 12 11 8 6 8 12 4 10 1 8 2 3 10 12 9 10 7 10 10 10 13 7 8 11 5 4 4 7 5 3 2 1 5 13 15 17 18
14 15 16 18 20 20 21 19 13 8 3 3 11 6 4 11 5 4 4 3 8 14 6 6 9 9 3 11 4 15 9 5 6 4 5 5 5 5 3 4 8 11 13 14 15
15 15 16 18 20 21 22 21 16 7 3 4 9 1 7 2 2 6 8 7 7 13 12 12 8 16 7 15 7 7 9 12 11 9 1 6 14 8 7 8 8 10 10 11 14
15 17 17 17 19 21 23 17 15 9 5 5 3 2 6 3 4 4 7 8 10 11 7 5 8 11 7 17 7 6 9 10 10 10 5 4 8 8 7 7 8 9 12 12 13
14 16 18 19 19 21 22 16 3 1 4 4 1 2 3 3 5 4 5 8 7 10 8 2 4 15 13 16 21 14 8 15 6 11 12 11 13 7 8 8 10 10 11 13 14
12 15 18 20 20 19 11 4 3 3 1 5 2 6 12 7 7 9 8 8 8 6 7 8 9 15 25 21 13 12 12 12 3 2 15 21 18 13 11 11 11 11 12 13 15
10 13 16 19 21 12 3 4 4 3 9 6 9 6 8 6 6 4 14 6 15 16 12 3 12 14 18 14 17 16 14 7 4 4 7 15 25 20 16 16 16 15 15 15 14
9 11 15 18 12 4 4 3 3 1 4 4 5 3 7 5 5 5 3 13 15 17 16 9 9 19 12 10 13 9 15 7 6 6 1 5 15 22 15 16 15 15 13 14 16
7 10 13 19 1 2 2 5 2 1 3 2 1 3 2 3 4 2 4 5 8 14 9 6 8 13 5 10 13 5 8 12 13 6 3 7 5 11 17 18 18 18 17 17 17
3 7 10 7 2 2 3 4 1 4 5 8 4 5 1 3 4 8 2 5 9 14 9 4 7 12 6 8 6 3 5 12 9 7 5 6 3 5 5 15 21 22 21 19 19
3 3 6 2 1 2 4 2 3 3 5 5 5 6 5 6 8 4 5 6 5 7 5 4 2 3 3 5 5 11 10 6 4 3 6 10 10 5 8 16 15 17 18 18 16
5 2 2 2 1 3 2 2 2 2 2 7 4 5 2 5 5 7 5 4 2 7 3 1 4 3 4 7 9 5 11 2 2 3 3 2 9 11 8 10 14 12 16 17 16
5 3 1 1 1 2 0 1 1 1 4 3 4 4 3 5 2 4 1 3 3 3 4 4 3 5 5 3 3 12 11 5 6 5 3 3 7 8 4 7 6 7 6 11 15
7 1 1 2 2 2 1 2 4 4 0 3 5 2 2 1 2 1 1 2 2 2 4 7 4 4 3 2 1 4 6 4 6 2 1 6 6 15 5 9 7 4 6 12 15
3 0 2 3 3 2 3 5 3 2 1 2 2 1 2 1 2 1 2 2 0 1 3 2 7 3 4 3 9 2 5 4 1 7 6 3 5 3 2 5 3 7 10 11 13
4 1 2 3 4 3 3 5 4 3 3 2 1 2 3 2 4 2 2 2 2 2 2 3 3 1 3 2 4 2 3 4 3 1 2 2 1 1 6 9 12 9 9 11 13
4 2 1 2 2 0 3 5 1 3 3 3 3 4 3 3 4 2 2 1 4 1 3 2 5 4 1 3 2 2 4 4 3 4 1 2 2 0 6 8 8 10 7 10 12
4 2 1 0 4 3 1 3 3 4 4 3 3 3 1 2 2 2 2 2 1 3 3 1 2 5 2 2 0 3 4 3 5 2 7 4 3 4 5 5 3 3 4 8 11
4 3 2 2 1 4 5 4 4 3 2 3 1 2 1 2 1 2 3 1 2 2 3 1 3 2 1 3 4 5 6 9 5 4 5 8 9 8 9 5 2 3 6 8 11
3 5 5 6 6 5 5 7 5 5 3 2 2 5 4 3 3 2 1 3 3 1 1 2 3 1 3 4 3 1 4 12 12 14 9 7 16 19 12 6 2 5 7 9 12
7 5 1 3 2 10 7 8 9 4 8 5 5 5 8 4 4 3 3 2 1 2 2 2 2 2 4 6 5 4 8 10 15 15 21 15 23 15 13 8 4 6 11 15 17
0 2 2 8 5 5 7 8 10 7 6 3 6 4 7 8 3 3 5 5 3 2 3 3 5 2 0 5 4 7 13 17 9 11 14 12 12 10 9 8 8 10 11 12 14
Wind_Direction
358 0 360 355 351 344 339 336 333 340 318 303 293 282 282 273 277 261 243 224 191 339 40 352 195 193 194 192 216 195 211 211 216 209 177 161 191 135 101 142 170 146 167 135 149
350 348 347 350 346 344 337 325 318 316 310 308 302 284 262 267 272 263 250 234 237 258 261 226 215 162 176 191 198 194 205 205 196 188 178 168 180 159 171 162 170 146 98 135 151
341 337 343 348 342 342 337 328 315 313 307 308 309 306 281 226 281 264 303 230 225 218 231 219 302 155 196 169 190 200 214 193 171 153 198 157 138 167 170 205 195 186 162 156 160
338 336 342 339 333 334 331 321 315 301 301 306 292 295 281 153 252 74 351 183 230 229 187 213 275 171 179 177 178 191 212 184 147 147 197 165 131 170 202 52 356 178 165 163 168
339 339 338 331 329 333 323 315 316 297 300 304 275 218 127 191 242 148 12 333 221 217 191 193 243 212 168 163 157 208 188 181 130 106 242 151 119 92 212 359 265 153 163 171 174
341 339 334 329 329 328 321 316 317 303 296 308 274 164 168 243 149 158 319 214 214 202 176 176 242 286 163 158 172 141 159 151 127 124 247 170 114 128 160 50 137 160 169 177 184
339 336 333 331 329 326 322 318 310 299 286 352 161 177 205 231 116 168 257 235 210 186 169 192 288 320 215 148 115 133 123 135 163 172 210 155 128 209 130 162 163 173 173 183 193
336 334 335 333 329 324 321 316 310 272 186 107 157 255 249 129 232 239 228 242 195 183 180 181 335 312 227 131 111 122 148 180 181 189 202 246 188 178 167 172 172 179 177 188 202
334 333 334 334 330 324 315 311 293 259 223 160 158 224 259 344 262 208 205 235 179 186 188 128 353 287 179 154 135 187 182 171 170 210 150 206 211 167 173 178 182 191 189 192 201
333 331 333 334 332 328 319 314 305 237 113 205 153 296 233 265 230 199 195 229 161 143 90 64 265 265 163 168 188 167 147 187 159 194 207 201 235 181 190 196 200 198 191 194 200
331 330 335 335 333 335 339 339 341 194 282 269 238 239 279 281 235 226 173 162 120 112 125 164 279 263 169 179 172 154 143 143 120 214 204 222 226 210 194 207 208 209 201 200 210
324 329 335 335 331 341 8 48 41 350 306 265 252 257 273 285 289 92 161 118 147 149 114 340 254 305 162 152 153 149 153 135 92 143 189 220 229 225 224 223 219 214 210 208 208
317 332 335 335 333 45 44 44 332 326 259 277 228 244 297 311 332 2 242 135 141 137 152 214 261 314 148 142 142 157 163 156 140 125 156 215 228 229 222 222 221 226 228 216 206
310 331 342 333 118 358 60 353 329 192 281 18 264 199 291 274 290 325 355 158 170 152 125 246 276 276 199 162 158 139 192 159 133 155 221 220 275 227 227 218 216 214 217 216 210
288 328 349 33 310 11 347 320 232 234 320 10 332 157 201 349 307 358 284 349 64 123 154 152 216 211 269 143 106 96 132 135 155 177 189 175 253 238 234 242 235 220 214 214 209
248 338 354 94 118 64 328 299 234 244 286 7 322 356 1 359 357 334 353 54 55 87 87 160 229 15 356 75 107 130 85 62 78 119 238 187 200 239 196 228 240 229 222 216 202
229 39 72 145 6 352 339 220 306 82 23 344 339 358 16 358 350 3 16 40 97 131 152 153 34 14 349 111 150 169 125 113 144 201 230 45 204 252 225 229 232 243 230 218 198
191 109 98 126 126 50 163 19 308 142 265 330 309 319 26 20 19 326 84 105 16 50 108 134 161 348 348 359 177 167 175 176 185 197 147 96 227 247 240 287 294 265 232 196 198
137 63 220 138 186 129 45 329 219 216 339 313 307 292 130 358 282 312 23 92 50 335 148 166 120 287 36 55 16 189 200 23 100 45 160 190 229 274 279 258 248 247 180 187 190
137 353 199 91 228 116 85 257 245 253 275 171 275 301 300 5 198 42 18 323 190 316 275 154 106 18 322 244 37 62 117 105 337 166 221 186 259 246 13 330 288 238 224 199 187
84 247 108 115 239 82 193 227 249 242 263 209 227 280 296 338 342 8 31 48 340 317 38 98 67 121 269 0 159 86 118 69 103 263 255 285 171 285 296 302 290 272 229 205 190
118 213 14 199 110 62 192 191 210 234 203 265 225 217 222 209 181 191 138 90 348 315 59 21 101 109 140 240 266 92 148 169 177 180 261 327 269 165 304 306 297 286 241 199 189
159 122 145 229 177 206 171 235 245 196 220 194 267 185 108 242 223 205 155 23 336 46 57 82 111 123 132 189 78 192 186 158 89 35 195 181 178 184 236 303 328 293 193 178 176
134 165 289 61 343 163 163 204 204 219 246 241 257 329 3 278 201 222 150 68 21 105 44 109 98 354 95 67 127 183 180 183 176 173 163 229 272 235 231 263 273 212 186 182 185
162 215 189 172 222 194 178 154 163 191 239 240 197 230 182 300 337 259 152 136 93 121 71 105 119 155 93 54 42 346 198 189 205 218 222 252 236 247 271 251 213 189 179 184 189
134 155 138 138 111 168 185 203 183 167 152 219 203 199 196 200 235 275 167 257 147 53 80 356 96 35 34 32 22 302 252 215 227 239 247 262 277 272 269 264 242 190 189 199 202
119 97 168 152 152 159 199 182 196 154 220 171 163 151 205 211 157 25 53 47 70 141 121 107 129 115 279 10 346 278 227 205 202 203 224 221 238 282 290 275 266 245 220 222 219